• Processing (Info)

  • MPEC 2008-T37 : 2008 TE1

    The following Minor Planet Electronic Circular may be linked-to from your own Web pages, but must not otherwise be redistributed electronically.

    A form allowing access to any MPEC is at the bottom of this page.


    Read MPEC 2008-T36 Read MPEC 2008-T38


    M.P.E.C. 2008-T37                                Issued 2008 Oct. 3, 17:43 UT
    
         The Minor Planet Electronic Circulars contain information on unusual
             minor planets and routine data on comets.  They are published
       on behalf of Commission 20 of the International Astronomical Union by the
              Minor Planet Center, Smithsonian Astrophysical Observatory,
                              Cambridge, MA 02138, U.S.A.
    
                 Prepared using the Tamkin Foundation Computer Network
    
                                  MPC@CFA.HARVARD.EDU
              URL http://www.cfa.harvard.edu/iau/mpc.html  ISSN 1523-6714
    
                                       2008 TE1
    
    Observations:
         K08T01E* C2008 10 02.29599 01 46 21.06 +18 21 20.6          19.2   ET037704
         K08T01E  C2008 10 02.30825 01 46 23.24 +18 30 29.5          19.6   ET037704
         K08T01E  C2008 10 02.32057 01 46 25.36 +18 39 39.3          18.8   ET037704
         K08T01E  C2008 10 02.33289 01 46 27.50 +18 48 49.2          19.2   ET037704
         K08T01E  C2008 10 02.94352 01 49 36.95 +26 01 48.2                 ET037J95
         K08T01E  C2008 10 02.94459 01 49 37.20 +26 02 32.5                 ET037J95
         K08T01E  C2008 10 02.94567 01 49 37.44 +26 03 16.8          18.3 R ET037J95
         K08T01E  C2008 10 03.36563 01 51 28.44 +30 40 01.4          18.7 R ET037H36
         K08T01E  C2008 10 03.36842 01 51 28.98 +30 41 45.8          18.1 R ET037H36
         K08T01E  C2008 10 03.37158 01 51 29.59 +30 43 44.8          18.4 R ET037H36
         K08T01E  C2008 10 03.40006 01 51 39.13 +31 02 16.1          18.7 R ET037854
         K08T01E  C2008 10 03.40353 01 51 39.77 +31 04 26.2          18.9 R ET037854
         K08T01E  C2008 10 03.40708 01 51 40.42 +31 06 39.0          18.9 R ET037854
         K08T01E  C2008 10 03.43700 01 51 45.26 +31 24 56.1          18.8 R ET037H01
         K08T01E  C2008 10 03.44346 01 51 46.56 +31 28 54.5          18.9 R ET037H01
         K08T01E  C2008 10 03.46506 01 51 51.07 +31 42 07.1          19.0 R ET037H01
         K08T01E  C2008 10 03.46618 01 51 51.31 +31 42 47.9          19.1 R ET037H01
    
    Observer details:
    704 Lincoln Laboratory ETS, New Mexico.  Observers M. Bezpalko, D. Torres,
        R. Kracke, G. Spitz, J. Kistler.  Measurers J. Stuart, S. Scruggs.  1.0-m
        f/2.15 reflector + CCD.
    854 Sabino Canyon Observatory, Tucson.  Observer J. E. McGaha.  0.36-m f/10.0
        Schmidt-Cassegrain + CCD.
    H01 Magdalena Ridge Observatory, Socorro.  Observer W. H. Ryan.  2.4-m f/8.9
        reflector + CCD.
    H36 Sandlot Observatory, Scranton.  Observer G. Hug.  0.56-m reflector + CCD.
    J95 Great Shefford.  Observer P. Birtwhistle.  0.40-m f/6.0 Schmidt-Cassegrain
        + CCD.
    
    Orbital elements:
    2008 TE1                                                 Earth MOID = 0.0243 AU
    Epoch 2008 Nov. 30.0 TT = JDT 2454800.5                 MPC
    M  20.70194              (2000.0)            P               Q
    n   0.36516748     Peri.    3.02015     +0.97756709     -0.20649858
    a   1.9385395      Node     9.21688     +0.18741002     +0.76289719
    e   0.4711287      Incl.   15.01054     +0.09612527     +0.61265505
    P   2.70           H   25.4           G   0.15           U   6
    Residuals in seconds of arc
    081002 704  0.2+  0.2-    081002 J95  0.0   0.0     081003 854  0.4-  0.2+
    081002 704  0.3+  0.0     081003 H36  0.2+  0.2+    081003 H01  0.2+  0.0
    081002 704  0.3-  0.4-    081003 H36  0.2+  0.3-    081003 H01  0.1+  0.3+
    081002 704  0.4-  0.7+    081003 H36  0.1+  0.0     081003 H01  0.1+  0.2+
    081002 J95  0.0   0.1-    081003 854  0.4-  0.6-    081003 H01  0.1+  0.1+
    081002 J95  0.1+  0.1+    081003 854  0.3-  0.1-
    
    Ephemeris:
    2008 TE1                 a,e,i = 1.94, 0.47, 15                  q = 1.0252
    Date    TT    R. A. (2000) Decl.     Delta      r     Elong.  Phase     V
    2008 10 01    01 39.99   +01 34.5    0.0259   1.026   162.4    17.2    18.4
    2008 10 03    01 49.75   +26 42.0    0.0281   1.025   151.4    27.9    18.9
    2008 10 05    01 59.92   +45 12.7    0.0345   1.025   136.3    42.4    19.8
    2008 10 07    02 10.46   +56 56.4    0.0434   1.026   126.3    51.8    20.6
    2008 10 09    02 21.30   +64 21.9    0.0535   1.027   120.1    57.3    21.2
    2008 10 11    02 32.32   +69 16.2    0.0642   1.028   116.2    60.6    21.7
    2008 10 13    02 43.38   +72 39.5    0.0752   1.030   113.7    62.5    22.1
    2008 10 15    02 54.30   +75 05.1    0.0863   1.033   112.1    63.4    22.4
    2008 10 17    03 04.89   +76 52.2    0.0976   1.036   111.2    63.8    22.7
    2008 10 19    03 14.92   +78 12.5    0.109    1.039   110.6    63.7    22.9
    2008 10 21    03 24.18   +79 13.3    0.120    1.043   110.4    63.4    23.1
    
    Sonia Keys                   (C) Copyright 2008 MPC           M.P.E.C. 2008-T37
    

    Read MPEC 2008-T36 Read MPEC 2008-T38


    MPEC number:

    Enter an MPEC number in one of the following forms:

    • 1997-B01 (the full form)
    • J97B01 (the packed version of the full form)
    • B01 (the abbreviated form)